Weather History for KNGP - January, 2013

Change the Weather History Date:

Thursday, January 10, 2013

  Actual Average Record
Temperature  
Mean Temperature 60 °F -  
Max Temperature 64 °F 64 °F 39 °F (2015)
Min Temperature 55 °F 48 °F 37 °F (2015)
Degree Days  
Heating Degree Days 6    
Growing Degree Days 10 (Base 50)    
Moisture  
Dew Point 52 °F    
Average Humidity 80    
Maximum Humidity 100    
Minimum Humidity 52    
Precipitation  
Precipitation 0.00 in - - ()
Sea Level Pressure  
Sea Level Pressure 30.06 in    
Wind  
Wind Speed 6 mph (SSW)    
Max Wind Speed 10 mph    
Max Gust Speed -    
Visibility 10 miles    
Events Thunderstorm    
Averages and records for this station are not official NWS values.
T = Trace of Precipitation, MM = Missing Value Source: NWS Daily Summary

Daily Weather History Graph

Daily Weather History Graph

Search for Another Location

Airport or City:

Trip Planner

Search our weather history database for the weather conditions in past years. The results will help you decide how hot, cold, wet, or windy it might be!

Date:

Astronomy

Jan. 10, 2013 Rise Set
Actual Time 7:21 AM CST 5:52 PM CST
Civil Twilight 6:55 AM CST 6:17 PM CST
Nautical Twilight 6:27 AM CST 6:46 PM CST
Astronomical Twilight 5:58 AM CST 7:15 PM CST
Moon 6:02 AM CST (1/10) 5:00 PM CST (1/10)
Length of Visible Light 11h 22m
Length of Day
10h 31m
Waning Crescent, 2% of the Moon is Illuminated
Jan 10
Waning Crescent
Jan 11
New
Jan 18
First Quarter
Jan 26
Full
Feb 3
Last Quarter

Hourly Weather History & Observations

Time (CST) Temp. Dew Point Humidity Pressure Visibility Wind Dir Wind Speed Gust Speed Precip Events Conditions
12:04 AM 57.2 °F 57.2 °F 100% 30.05 in 10.0 mi SE 6.9 mph - N/A Thunderstorm Thunderstorm
12:19 AM 59.0 °F 57.2 °F 94% 30.05 in 10.0 mi South 5.8 mph - N/A   Partly Cloudy
12:56 AM 59.0 °F 57.0 °F 93% 30.06 in 10.0 mi SSW 4.6 mph - N/A   Scattered Clouds
1:56 AM 59.0 °F 57.0 °F 93% 30.08 in 10.0 mi SW 3.5 mph - N/A   Clear
2:56 AM 57.0 °F 55.0 °F 93% 30.07 in 8.0 mi West 3.5 mph - N/A   Clear
3:56 AM 57.9 °F 57.0 °F 97% 30.07 in 8.0 mi WSW 6.9 mph - N/A   Overcast
4:56 AM 57.9 °F 57.0 °F 97% 30.04 in 6.0 mi West 6.9 mph - N/A   Overcast
5:56 AM 57.9 °F 55.0 °F 90% 30.05 in 10.0 mi West 9.2 mph - N/A   Mostly Cloudy
6:56 AM 55.9 °F 53.1 °F 90% 30.06 in 10.0 mi West 5.8 mph - N/A   Overcast
7:29 AM 55.4 °F 51.8 °F 88% 30.06 in 10.0 mi WNW 9.2 mph - N/A   Mostly Cloudy
7:53 AM 55.4 °F 51.8 °F 88% 30.06 in 10.0 mi WNW 9.2 mph - N/A   Scattered Clouds
7:56 AM 55.0 °F 51.1 °F 86% 30.06 in 10.0 mi WNW 10.4 mph - N/A   Scattered Clouds
8:56 AM 55.9 °F 50.0 °F 80% 30.06 in 10.0 mi WNW 10.4 mph - N/A   Scattered Clouds
9:56 AM 59.0 °F 48.0 °F 67% 30.09 in 10.0 mi NW 5.8 mph - N/A   Scattered Clouds
10:56 AM 60.1 °F 48.0 °F 64% 30.12 in 10.0 mi NNE 6.9 mph - N/A   Scattered Clouds
11:56 AM 61.0 °F 48.0 °F 62% 30.11 in 10.0 mi ENE 5.8 mph - N/A   Partly Cloudy
12:56 PM 62.1 °F 46.9 °F 58% 30.07 in 10.0 mi Calm Calm - N/A   Partly Cloudy
1:56 PM 64.4 °F 46.4 °F 52% 30.05 in 10.0 mi Variable 4.6 mph - N/A   Scattered Clouds
2:56 PM 64.4 °F 46.4 °F 52% 30.04 in 10.0 mi Calm Calm - N/A   Scattered Clouds
3:56 PM 64.4 °F 46.4 °F 52% 30.03 in 10.0 mi ESE 6.9 mph - N/A   Scattered Clouds
4:56 PM 62.6 °F 48.2 °F 59% 30.04 in 10.0 mi SE 9.2 mph - N/A   Scattered Clouds
5:56 PM 59.0 °F 48.2 °F 67% 30.04 in 10.0 mi SE 8.1 mph - N/A   Scattered Clouds
6:56 PM 55.0 °F 50.0 °F 83% 30.04 in 10.0 mi SE 6.9 mph - N/A   Scattered Clouds
7:56 PM 57.0 °F 53.1 °F 87% 30.04 in 10.0 mi SE 9.2 mph - N/A   Clear
8:56 PM 57.0 °F 52.0 °F 83% 30.04 in 10.0 mi SSE 5.8 mph - N/A   Clear
9:56 PM 57.9 °F 54.0 °F 87% 30.05 in 10.0 mi SSE 8.1 mph - N/A   Clear
10:56 PM 55.9 °F 53.1 °F 90% 30.05 in 10.0 mi SSE 6.9 mph - N/A   Clear
11:56 PM 59.0 °F 54.0 °F 83% 30.06 in 10.0 mi South 6.9 mph - N/A   Clear